Waarnemingen

Advertentie
Mijn weer
Vidsel, Zweden (2154): temperatuur & dauwpunt: 16.07.2018 14:00:00 - 22.07.2018 14:00:00 (CEST)Vidsel, Zweden (2154): windsnelheid & windstoten: 16.07.2018 14:00:00 - 22.07.2018 14:00:00 (CEST)Vidsel, Zweden (2154): windrichting: 16.07.2018 14:00:00 - 22.07.2018 14:00:00 (CEST)Vidsel, Zweden (2154): luchtdruk: 16.07.2018 14:00:00 - 22.07.2018 14:00:00 (CEST)Vidsel, Zweden (2154): zicht: 16.07.2018 14:00:00 - 22.07.2018 14:00:00 (CEST)Vidsel, Zweden (2154): neerslag: 16.07.2018 14:00:00 - 22.07.2018 14:00:00 (CEST)
Datum & Tijd tt [°C] td [°C] ff [km/u] ff [kn] fx [km/u] fx [kn] dd ppp [hPa] vv [km] rr [mm]
22.07.2018 14:00:00 24,0 16,3 8 4 18 10 - 1002,4 10 0,0
22.07.2018 13:00:00 23,6 15,6 11 6 22 12 ZO 1002,4 10 0,0
22.07.2018 12:00:00 22,8 17,5 13 7 22 12 ZO 1002,9 10 0,0
22.07.2018 11:00:00 22,0 18,0 8 4 14 8 O 1003,0 10 0,0
22.07.2018 10:00:00 20,1 17,9 5 3 11 6 ZZO 1003,6 10 0,0
22.07.2018 09:00:00 19,7 17,5 4 2 7 4 - 1003,9 10 0,0
22.07.2018 08:00:00 17,7 16,6 4 2 7 4 - 1003,8 10 0,0
22.07.2018 07:00:00 17,1 15,8 5 3 14 8 NW 1003,8 10 0,0
22.07.2018 06:00:00 16,5 15,5 9 5 14 8 WNW 1004,1 10 0,0
22.07.2018 05:00:00 15,4 15,2 0 0 4 2 N 1004,4 6 0,0
22.07.2018 04:00:00 15,2 15,0 0 0 4 2 N 1004,2 5 0,0
22.07.2018 03:00:00 15,1 14,8 4 2 7 4 - 1004,5 7 0,0
22.07.2018 02:00:00 16,0 15,7 4 2 7 4 NNO 1004,6 6 0,0
22.07.2018 01:00:00 16,7 16,1 2 1 18 10 - 1004,7 10 0,7
22.07.2018 00:00:00 17,9 15,7 16 9 29 16 NO 1005,3 1,7 20,0
21.07.2018 23:00:00 19,7 17,7 2 1 7 4 - 1004,9 10 0,0
21.07.2018 22:00:00 20,2 17,8 2 1 11 6 - 1005,3 10 0,0
21.07.2018 21:00:00 21,4 18,2 5 3 11 6 N 1005,2 10 0,0
21.07.2018 20:00:00 22,8 17,9 4 2 7 4 W 1004,9 10 0,0
21.07.2018 19:00:00 22,3 18,7 4 2 11 6 - 1005,0 10 0,0
21.07.2018 18:00:00 23,2 18,5 4 2 7 4 - 1004,9 10 0,0
21.07.2018 17:00:00 21,6 18,0 4 2 7 4 - 1005,9 10 0,0
21.07.2018 16:00:00 21,5 17,1 8 4 18 10 ONO 1006,3 10 0,6
21.07.2018 15:00:00 22,5 16,5 9 5 36 19 ZO 1006,1 10 0,1
21.07.2018 14:00:00 24,0 16,8 16 9 25 14 ZO 1005,8 10 0,0
21.07.2018 13:00:00 27,6 13,9 9 5 18 10 - 1005,4 10 0,0
21.07.2018 12:00:00 27,5 13,8 8 4 14 8 ZZO 1006,4 10 0,0
21.07.2018 11:00:00 26,4 14,2 4 2 14 8 - 1007,1 10 0,0
21.07.2018 10:00:00 24,5 14,3 4 2 7 4 - 1007,8 10 0,0
21.07.2018 09:00:00 22,1 15,0 4 2 7 4 - 1008,3 10 0,0
21.07.2018 08:00:00 20,8 14,9 2 1 7 4 - 1008,7 10 0,0
21.07.2018 07:00:00 19,3 14,5 2 1 4 2 - 1009,1 10 0,0
21.07.2018 06:00:00 18,6 13,9 2 1 4 2 - 1009,7 10 0,0
21.07.2018 05:00:00 17,0 13,5 0 0 4 2 N 1010,0 10 0,0
21.07.2018 04:00:00 15,2 13,6 2 1 4 2 - 1010,3 10 0,0
21.07.2018 03:00:00 15,7 13,4 2 1 4 2 WNW 1010,3 10 0,0
21.07.2018 02:00:00 17,0 13,5 2 1 7 4 OZO 1010,5 10 0,0
21.07.2018 01:00:00 18,6 13,0 0 0 11 6 N 1010,7 10 0,0
21.07.2018 00:00:00 21,2 12,3 5 3 11 6 OZO 1010,7 10 0,0
20.07.2018 23:00:00 21,9 12,2 8 4 11 6 OZO 1010,8 10 0,0
20.07.2018 22:00:00 23,5 12,2 9 5 14 8 O 1010,5 10 0,0
20.07.2018 21:00:00 24,4 12,4 8 4 18 10 OZO 1010,6 10 0,0
20.07.2018 20:00:00 25,7 12,2 11 6 25 14 ZO 1010,5 10 0,0
20.07.2018 19:00:00 27,1 12,3 16 9 29 16 ZO 1010,4 10 0,0
20.07.2018 18:00:00 27,0 12,2 21 11 29 16 ZO 1010,6 10 0,0
20.07.2018 17:00:00 27,4 12,2 22 12 32 18 OZO 1010,8 10 0,0
20.07.2018 16:00:00 28,1 12,4 18 10 29 16 OZO 1011,0 10 0,0
20.07.2018 15:00:00 27,8 12,6 15 8 32 18 ZZO 1011,4 10 0,0
20.07.2018 14:00:00 27,6 13,5 18 10 32 18 ZO 1011,7 10 0,0
20.07.2018 13:00:00 27,9 12,7 16 9 29 16 ZZO 1012,0 10 0,0
20.07.2018 12:00:00 27,6 13,2 16 9 29 16 ZZO 1012,4 10 0,0
20.07.2018 11:00:00 26,4 13,2 15 8 25 14 ZO 1013,0 10 0,0
20.07.2018 10:00:00 25,7 13,5 8 4 18 10 ZO 1013,1 10 0,0
20.07.2018 09:00:00 24,2 14,0 8 4 18 10 ZO 1013,5 10 0,0
20.07.2018 08:00:00 22,0 14,9 2 1 7 4 - 1014,0 10 0,0
20.07.2018 07:00:00 19,0 14,0 2 1 7 4 - 1014,5 10 0,0
20.07.2018 06:00:00 15,8 12,9 2 1 4 2 - 1015,0 10 0,0
20.07.2018 05:00:00 13,4 12,0 2 1 7 4 W 1015,4 10 0,0
20.07.2018 04:00:00 11,9 11,4 2 1 4 2 W 1015,5 10 0,0
20.07.2018 03:00:00 12,4 11,5 2 1 4 2 W 1015,7 10 0,0
20.07.2018 02:00:00 13,6 12,0 4 2 7 4 NW 1015,7 10 0,0
20.07.2018 01:00:00 14,6 12,3 4 2 4 2 O 1015,6 10 0,0
20.07.2018 00:00:00 16,6 13,3 0 0 11 6 N 1015,5 10 0,0
19.07.2018 23:00:00 18,8 13,9 4 2 7 4 ZO 1015,1 10 0,0
19.07.2018 22:00:00 22,5 13,8 9 5 14 8 O 1014,6 10 0,0
19.07.2018 21:00:00 24,0 13,2 13 7 22 12 ZO 1014,4 10 0,0
19.07.2018 20:00:00 25,8 11,9 15 8 25 14 OZO 1014,1 10 0,0
19.07.2018 19:00:00 26,5 12,5 21 11 29 16 OZO 1013,8 10 0,0
19.07.2018 18:00:00 27,5 12,7 22 12 29 16 OZO 1013,7 10 0,0
19.07.2018 17:00:00 27,9 12,7 16 9 32 18 ZO 1013,9 10 0,0
19.07.2018 16:00:00 28,4 12,3 18 10 32 18 OZO 1013,8 10 0,0
19.07.2018 15:00:00 28,6 12,9 21 11 32 18 ZO 1014,1 10 0,0
19.07.2018 14:00:00 28,5 12,0 21 11 36 19 ZO 1014,3 10 0,0
19.07.2018 13:00:00 28,4 11,5 21 11 36 19 ZO 1014,7 10 0,0
19.07.2018 12:00:00 28,3 11,4 22 12 32 18 ZO 1015,0 10 0,0
19.07.2018 11:00:00 27,4 12,6 16 9 32 18 ZZO 1015,1 10 0,0
19.07.2018 10:00:00 26,9 12,2 13 7 22 12 OZO 1015,2 10 0,0
19.07.2018 09:00:00 24,9 15,0 13 7 18 10 O 1015,3 10 0,0
19.07.2018 08:00:00 23,0 14,8 5 3 7 4 O 1015,7 10 0,0
19.07.2018 07:00:00 20,0 14,1 0 0 4 2 N 1016,0 10 0,0
19.07.2018 06:00:00 16,3 12,8 2 1 4 2 - 1016,5 10 0,0
19.07.2018 05:00:00 14,1 11,8 2 1 4 2 - 1016,5 10 0,0
19.07.2018 04:00:00 12,3 11,5 0 0 4 2 N 1016,8 10 0,0
19.07.2018 03:00:00 12,6 10,7 0 0 4 2 N 1016,9 10 0,0
19.07.2018 02:00:00 13,9 11,6 2 1 4 2 - 1016,8 10 0,0
19.07.2018 01:00:00 14,6 11,6 2 1 7 4 - 1016,6 10 0,0
19.07.2018 00:00:00 16,1 11,9 2 1 7 4 - 1016,6 10 0,0
18.07.2018 23:00:00 20,4 11,9 2 1 7 4 - 1016,4 10 0,0
18.07.2018 22:00:00 23,5 11,2 9 5 22 12 O 1016,0 10 0,0
18.07.2018 21:00:00 25,6 9,0 11 6 25 14 ZO 1015,7 10 0,0
18.07.2018 20:00:00 27,2 10,4 15 8 25 14 ZO 1015,5 10 0,0
18.07.2018 19:00:00 27,8 12,6 18 10 32 18 ZO 1015,6 10 0,0
18.07.2018 18:00:00 28,4 13,5 21 11 36 19 ZO 1015,7 10 0,0
18.07.2018 17:00:00 29,1 14,1 24 13 32 18 ZO 1015,8 10 0,0
18.07.2018 16:00:00 30,0 14,3 24 13 36 19 OZO 1015,9 10 0,0
18.07.2018 15:00:00 30,6 14,7 21 11 32 18 ZZO 1016,0 10 0,0
18.07.2018 14:00:00 30,8 14,4 18 10 32 18 ZO 1016,3 10 0,0
18.07.2018 13:00:00 30,5 12,9 16 9 29 16 OZO 1016,7 10 0,0
18.07.2018 12:00:00 29,5 12,9 11 6 22 12 O 1017,3 10 0,0
18.07.2018 11:00:00 28,6 12,9 8 4 14 8 ONO 1017,8 10 0,0
18.07.2018 10:00:00 26,7 13,1 8 4 11 6 O 1018,4 10 0,0
18.07.2018 09:00:00 25,4 14,5 - - - - - 1018,8 - 0,0
18.07.2018 08:00:00 21,9 14,3 - - - - - 1019,2 - -
18.07.2018 07:00:00 19,0 13,2 - - 4 2 - 1019,4 - 0,0
18.07.2018 06:00:00 16,1 12,1 4 2 4 2 - 1019,7 10 0,0
18.07.2018 05:00:00 13,6 10,9 5 3 7 4 WNW 1019,9 10 0,0
18.07.2018 04:00:00 12,2 10,3 0 0 4 2 N 1020,0 10 0,0
18.07.2018 03:00:00 12,6 10,3 2 1 4 2 NW 1020,0 10 0,0
18.07.2018 02:00:00 12,7 10,4 0 0 7 4 N 1019,8 10 0,0
18.07.2018 01:00:00 14,0 9,8 2 1 4 2 - 1019,4 10 0,0
18.07.2018 00:00:00 16,2 10,3 0 0 7 4 N 1018,9 10 0,0
17.07.2018 23:00:00 20,3 9,2 8 4 11 6 OZO 1018,5 10 0,0
17.07.2018 22:00:00 23,8 9,0 4 2 14 8 OZO 1018,0 10 0,0
17.07.2018 21:00:00 25,9 9,3 13 7 18 10 ZO 1017,4 10 0,0
17.07.2018 20:00:00 27,7 9,5 15 8 22 12 ZO 1017,1 10 0,0
17.07.2018 19:00:00 28,5 11,1 16 9 22 12 OZO 1016,9 10 0,0
17.07.2018 18:00:00 29,2 11,3 13 7 25 14 OZO 1016,8 10 0,0
17.07.2018 17:00:00 29,5 11,5 11 6 25 14 OZO 1016,8 10 0,0
17.07.2018 16:00:00 29,5 12,4 13 7 25 14 OZO 1017,0 10 0,0
17.07.2018 15:00:00 29,6 12,9 9 5 22 12 - 1017,5 10 0,0
17.07.2018 14:00:00 28,9 12,3 9 5 22 12 ZO 1017,7 10 0,0
17.07.2018 13:00:00 28,5 13,2 13 7 18 10 OZO 1017,8 10 0,0
17.07.2018 12:00:00 28,0 13,5 11 6 22 12 OZO 1018,1 10 0,0
17.07.2018 11:00:00 26,4 13,2 11 6 18 10 OZO 1018,3 10 0,0
17.07.2018 10:00:00 25,1 13,9 9 5 18 10 O 1018,4 10 0,0
17.07.2018 09:00:00 24,1 13,9 9 5 14 8 OZO 1018,7 10 0,0
17.07.2018 08:00:00 21,8 13,7 8 4 11 6 O 1018,8 10 0,0
17.07.2018 07:00:00 20,1 14,2 2 1 4 2 - 1019,0 10 0,0
17.07.2018 06:00:00 16,7 13,4 2 1 4 2 - 1019,1 10 0,0
17.07.2018 05:00:00 14,6 12,3 2 1 4 2 WNW 1019,3 10 0,0
17.07.2018 04:00:00 12,8 11,4 2 1 4 2 - 1019,3 10 0,0
17.07.2018 03:00:00 13,3 11,5 0 0 4 2 N 1019,1 10 0,0
17.07.2018 02:00:00 14,5 12,0 4 2 7 4 NW 1018,8 10 0,0
17.07.2018 01:00:00 16,5 12,3 0 0 7 4 N 1018,5 10 0,0
17.07.2018 00:00:00 19,9 12,6 5 3 14 8 OZO 1018,0 10 0,0
16.07.2018 23:00:00 21,3 12,9 13 7 18 10 OZO 1017,3 10 0,0
16.07.2018 22:00:00 23,1 13,0 11 6 22 12 OZO 1016,8 10 0,0
16.07.2018 21:00:00 25,4 12,9 15 8 25 14 ZO 1016,0 10 0,0
16.07.2018 20:00:00 27,5 11,5 13 7 18 10 OZO 1015,5 10 0,0
16.07.2018 19:00:00 27,9 11,4 13 7 18 10 OZO 1015,2 10 0,0
16.07.2018 18:00:00 28,0 11,1 11 6 22 12 O 1015,2 10 0,0
16.07.2018 17:00:00 28,1 10,8 9 5 22 12 - 1015,2 10 0,0
16.07.2018 16:00:00 28,2 10,4 5 3 18 10 - 1015,4 10 0,0
16.07.2018 15:00:00 26,8 9,6 8 4 14 8 ONO 1015,7 10 0,0
16.07.2018 14:00:00 25,9 10,1 8 4 14 8 - 1016,1 10 0,0

tt = temperatuur
td = dauwpunt
ff = windsnelheid
fx = windstoten
dd = windrichting
ppp = luchtdruk
vv = zicht
rr = neerslag

Weerstations in de omgeving